Weather History for St. Joseph, MO

Change the Weather History Date:

Tuesday, December 25, 2012

  Actual Average Record
Temperature  
Mean Temperature 15 °F 27 °F  
Max Temperature 19 °F 37 °F 63 °F (1960)
Min Temperature 10 °F 18 °F -15 °F (1983)
Degree Days  
Heating Degree Days 50 38  
Month to date heating degree days 734 873  
Since 1 July heating degree days 1846 1984  
Cooling Degree Days 0 0  
Month to date cooling degree days 0 0  
Year to date cooling degree days 1565 1221  
Moisture  
Dew Point 6 °F    
Average Humidity 68    
Maximum Humidity 80    
Minimum Humidity 56    
Precipitation  
Precipitation 0.00 in 0.04 in 0.45 in (1973)
Month to date precipitation 0.94 1.26  
Year to date precipitation 23.25 35.34  
Sea Level Pressure  
Sea Level Pressure 30.34 in    
Wind  
Wind Speed 15 mph (North)    
Max Wind Speed 24 mph    
Max Gust Speed 28 mph    
Visibility 10 miles    
Events      
T = Trace of Precipitation, MM = Missing Value Source: NWS Daily Summary

Daily Weather History Graph

Daily Weather History Graph

Search for Another Location

Airport:

Trip Planner

Search our weather history database for the weather conditions in past years. The results will help you decide how hot, cold, wet, or windy it might be!

Date:

Astronomy

Dec. 25, 2012 Rise Set
Actual Time 7:39 AM CST 5:00 PM CST
Civil Twilight 7:08 AM CST 5:31 PM CST
Nautical Twilight 6:34 AM CST 6:05 PM CST
Astronomical Twilight 6:01 AM CST 6:38 PM CST
Moon 3:09 PM CST (12/25) 5:12 AM CST (12/25)
Length of Visible Light 10h 22m
Length of Day
9h 21m
Waxing Gibbous, 94% of the Moon is Illuminated
Dec 25
Waxing Gibbous
Dec 28
Full
Jan 4
Last Quarter
Jan 11
New
Jan 18
First Quarter

Hourly Weather History & Observations

Time (CST) Temp. Windchill Dew Point Humidity Pressure Visibility Wind Dir Wind Speed Gust Speed Precip Events Conditions
12:53 AM 18.0 °F 4.2 °F 10.0 °F 71% 30.25 in 10.0 mi NNE 13.8 mph - N/A   Scattered Clouds
1:53 AM 17.1 °F 3.0 °F 10.0 °F 74% 30.25 in 10.0 mi NE 13.8 mph - N/A   Partly Cloudy
2:53 AM 16.0 °F 3.6 °F 9.0 °F 74% 30.28 in 10.0 mi NNE 10.4 mph - N/A   Clear
3:53 AM 15.1 °F 1.8 °F 8.1 °F 74% 30.29 in 10.0 mi NNE 11.5 mph - N/A   Clear
4:53 AM 14.0 °F 2.0 °F 8.1 °F 77% 30.30 in 10.0 mi North 9.2 mph - N/A   Clear
5:53 AM 12.9 °F -2.2 °F 7.0 °F 77% 30.32 in 10.0 mi North 13.8 mph - N/A   Clear
6:15 AM 12.2 °F -2.5 °F 6.8 °F 79% 30.28 in 10.0 mi North 12.7 mph - N/A   Mostly Cloudy
6:53 AM 12.9 °F -3.4 °F 7.0 °F 77% 30.33 in 10.0 mi North 16.1 mph - N/A   Overcast
7:53 AM 12.0 °F -5.6 °F 5.0 °F 73% 30.36 in 10.0 mi North 18.4 mph - N/A   Overcast
8:53 AM 10.9 °F -6.5 °F 3.9 °F 73% 30.41 in 10.0 mi North 17.3 mph - N/A   Overcast
9:53 AM 10.9 °F -5.9 °F 3.0 °F 70% 30.44 in 10.0 mi North 16.1 mph - N/A   Overcast
10:53 AM 12.0 °F -6.9 °F 3.9 °F 70% 30.39 in 10.0 mi North 21.9 mph - N/A   Overcast
11:16 AM 12.2 °F -6.3 °F 5.0 °F 73% 30.33 in 10.0 mi North 20.7 mph - N/A   Partly Cloudy
11:53 AM 15.1 °F -2.5 °F 6.1 °F 68% 30.33 in 10.0 mi North 20.7 mph - N/A   Clear
12:53 PM 17.1 °F 0.6 °F 7.0 °F 65% 30.34 in 10.0 mi North 19.6 mph - N/A   Clear
1:53 PM 18.0 °F 2.2 °F 7.0 °F 62% 30.34 in 10.0 mi North 18.4 mph - N/A   Overcast
2:53 PM 18.0 °F 2.2 °F 7.0 °F 62% 30.32 in 10.0 mi North 18.4 mph - N/A   Mostly Cloudy
3:53 PM 19.0 °F 6.8 °F 8.1 °F 62% 30.36 in 10.0 mi North 11.5 mph - N/A   Clear
4:53 PM 19.0 °F 4.5 °F 7.0 °F 59% 30.38 in 10.0 mi North 16.1 mph - N/A   Clear
5:53 PM 18.0 °F 2.2 °F 7.0 °F 62% 30.38 in 10.0 mi North 18.4 mph - N/A   Clear
6:53 PM 16.0 °F 0.6 °F 7.0 °F 68% 30.39 in 10.0 mi North 16.1 mph 25.3 mph N/A   Partly Cloudy
7:53 PM 15.1 °F -0.1 °F 6.1 °F 68% 30.38 in 10.0 mi North 15.0 mph - N/A   Scattered Clouds
8:53 PM 12.9 °F -0.9 °F 5.0 °F 71% 30.37 in 10.0 mi North 11.5 mph - N/A   Clear
9:53 PM 10.9 °F -2.6 °F 5.0 °F 77% 30.36 in 10.0 mi North 10.4 mph - N/A   Clear
10:53 PM 10.9 °F -2.6 °F 5.0 °F 77% 30.35 in 10.0 mi North 10.4 mph - N/A   Clear
11:53 PM 10.0 °F -1.9 °F 3.9 °F 76% 30.35 in 10.0 mi North 8.1 mph - N/A   Clear